METEOR 2-5 DEB, 45511

Orbit data source: Space-Track

METEOR 2-5 DEB, 45511 is space debris in LEO originally from a launch on Wed, 31 Oct 1979 UTC launched from the Plesetsk Missile And Space Complex (PKMTR). Debris objects in space refer to the collection of defunct objects orbiting the Earth. Examples of debris include non-operational satellites, rocket bodies, and fragments generated from explosions, collisions, or faulty payload assembly.

Loading next visibility...
Identifier
45511, 1979-095CT
Orbit
LEO
Country
Flag of CISCIS
Related business
Manufacturer
Unknown
Mission
Spacecraft
Bus & Motor
Unknown
Mass
Unknown
Launch date (UTC)
1979-10-31 (47 years ago)
Launch vehicle
Unknown
Launch site
Plesetsk Missile And Space Complex (PKMTR)
Object type
Payload
Rocket body
Debris
Shape & HBR
Unknown shape, 0.1 m
Radar Cross Section
Small (<0.1 m²)

Expand to show TLE details & history
Last TLE update: 2 days ago

TLE from 2 days ago
0 METEOR 2-5 DEB
1 45511U 79095CT  26263.84691413  .00002475  00000-0  10743-2 0  9996
2 45511  81.2170 112.5440 0010103 276.1410  83.8617 14.23926394453367
Epoch: 2026-09-20T20:19Z
TLE epoch observation values (Epoch: 2026-09-20T20:19:33.380Z)
Latitude
-0.00007°
Longitude
167.91968°
Altitude
814.252 km
Speed
7.447 km/s
True Right ascension
07h 30m 10s
True Declination
0° 00' 00"
Sunlit
Object was in daylight at epoch
Visualization orbit readout
Latitude
Unknown
Longitude
Unknown
Altitude
Unknown
Speed
Unknown
Apparent Right ascension
Unknown
Apparent Declination
Unknown
Sunlit
N/A
Visualization observer readout
Local Sidereal Time
16:51:12
Azimuth
Unknown
Elevation
Unknown
Doppler factor
Unknown
Orbital elements
Apogee altitude
816.523 km
Perigee altitude
802 km
Semi-major axis
7,187.398 km
Eccentricity
0.00101
Inclination
81.217°
RAAN
112.544°
Arg. of periapsis
276.141°
True anomaly
83.97682°
Mean anomaly
83.8617°
Eccentric anomaly
83.91926°
Mean motion
3.56193 °/min
Orbital period
101.07 mins
BSTAR
0.0010743
Loading maneuver chart data...
Computing Atmospheric mass density...

Documentation

Showing up to 5 results
|